Location: Wheeling
(40.0640°N, 80.7210°W)
Time: 20:26:36
(UTC-05:00)

ITAMSAT 1 - Pass Details

Date: 28 October 2021
Orbit: 784 x 796 km, 98.9° (Epoch: 01 December)

Event Time Altitude Azimuth Distance (km) Brightness Sun altitude
Rises 18:50:05 0° 134° (SE) 3,263 10.5 -5.5°
Reaches altitude 10° 18:52:41 10° 123° (ESE) 2,340 9.7 -6.0°
Maximum altitude 18:56:59 27° 66° (ENE) 1,462 8.5 -6.8°
Drops below altitude 10° 19:01:19 10° 9° (N) 2,357 9.9 -7.6°
Sets 19:03:55 0° 358° (N) 3,292 10.8 -8.1°
